Regional Weather Roundup
Issued by NWS Kansas City/Pleasant Hill, MO

Home | Current Version | Previous Version | Graphics & Text | Print | Product List | Glossary Off
Versions: 1 2 3 4 5 6 7 8 9 10 11 12 13 14 15 16 17 18 19 20 21 22 23 24 25 26 27 28 29 30 31 32 33 34 35 36 37 38 39 40 41 42 43 44 45 46 47 48 49 50

000
ASUS43 KEAX 271504
RWREAX

WEATHER ROUNDUP FOR EASTERN KANSAS AND NORTHWEST MISSOURI
NATIONAL WEATHER SERVICE KANSAS CITY/PLEASANT HILL MO
1000 AM CDT WED AUG 27 2014

KSZ040-057-103>105-MOZ028-029-037-043-271600-
...KANSAS CITY METROPOLITAN AREA...

CITY           SKY/WX    TMP DP  RH WIND       PRES   REMARKS
K.C. INTL      PTSUNNY   73  68  84 E9        30.13S
K.C. DOWNTOWN  MOSUNNY   80  69  69 NE9       30.12R
LEES SUMMIT    MOSUNNY   79  71  76 E12       30.14R
OLATHE - IXD   MOSUNNY   82  70  66 NE8       30.13S
OLATHE - OJC   MOSUNNY   81  71  71 NE8       30.12R
LAWRENCE       PTSUNNY   80  69  69 VRB3      30.13R

$$

MOZ001>008-011>017-020>025-030>033-038>040-044>046-053-054-271600-
...NORTHERN AND CENTRAL MISSOURI...

CITY           SKY/WX    TMP DP  RH WIND       PRES   REMARKS
ST. JOSEPH     TSTM      70  68  93 N5        30.16R
MOSBY          PTSUNNY   75  68  78 NE8       30.13R
WHITEMAN AFB   PTSUNNY   78  52  40 N10       30.13R
CLINTON        SUNNY     82  73  74 W6        30.11R
SEDALIA        MOSUNNY   80  71  74 NW12      30.14R
WARSAW         NOT AVBL
MARSHALL       CLOUDY    77  73  88 N12       30.14R
CHILLICOTHE      N/A     71  68  90 N8        30.14F
MOBERLY        CLOUDY    77  70  78 N10       30.15R
KIRKSVILLE     CLOUDY    72  68  87 N6        30.17F

$$

MOZ041-047>049-056>058-063>065-088>090-097-271600-
...EASTERN AND SOUTHERN MISSOURI...

CITY           SKY/WX    TMP DP  RH WIND       PRES   REMARKS
ST. LOUIS INTL MOSUNNY   83  73  72 E6        30.12R
SPIRIT OF STL  MOSUNNY   83  72  69 CALM      30.10R
COLUMBIA       MOSUNNY   85  71  63 NW7       30.11R HX  90
JEFFERSON CITY MOSUNNY   83  72  69 VRB5      30.09R
MEXICO         PTSUNNY   82  77  83 NE3       30.11S HX  91
ROLLA          SUNNY     86  69  56 SW9       30.11S HX  90
LEBANON        SUNNY     86  70  58 W7        30.14S HX  90
OSAGE BEACH    SUNNY     82  72  69 W5        30.11R
SPRINGFIELD    SUNNY     85  69  58 W7        30.14R
BRANSON        SUNNY     90  72  55 CALM      30.15S HX  96
NEVADA         SUNNY     84  70  61 SW6       30.13S
JOPLIN         SUNNY     85  70  60 W9        30.14R
WEST PLAINS    SUNNY     86  70  58 VRB3      30.15S HX  90

$$

IAZ060-094-KSZ022-034>040-054-083-096-NEZ052-066-093-271600-
...KANSAS...SOUTHEAST NEBRASKA AND IOWA...

CITY           SKY/WX    TMP DP  RH WIND       PRES   REMARKS
TOPEKA         PTSUNNY   79  73  82 E7        30.13R
MANHATTAN      MOSUNNY   80  71  74 SE6       30.11R
EMPORIA        MOSUNNY   85  68  56 VRB7      30.12R
CHANUTE        SUNNY     85  69  58 W9        30.13R
WICHITA        CLOUDY    80  64  58 W6        30.12S
OMAHA          TSTM      68  66  93 N6        30.16R VSB 1
LINCOLN        MOSUNNY   72  69  90 E7        30.14R
FALLS CITY     CLOUDY    71  69  93 SE10      30.13R
LAMONI         CLOUDY    69  68  96 S5        30.14F
DES MOINES     PTSUNNY   71  63  75 SE7       30.15S

$$




USA.gov is the U.S. government's official web portal to all federal, state and local government web resources and services.